Time,TemperatureF,DewpointF,PressureIn,WindDirection,WindDirectionDegrees,WindSpeedMPH,WindSpeedGustMPH,Humidity,HourlyPrecipIn,Conditions,Clouds,dailyrainin,SoftwareType,DateUTC
2013-02-26 00:01:00,36.0,14.0,-100.00,SSE,159,2.0,4.0,40,-99.99,,,-99.99,,2013-02-26 08:01:00,
2013-02-26 00:11:00,35.0,14.0,-100.00,South,185,3.0,5.0,41,-99.99,,,-99.99,,2013-02-26 08:11:00,
2013-02-26 00:21:00,36.0,13.0,-100.00,South,183,1.0,2.0,39,-99.99,,,-99.99,,2013-02-26 08:21:00,
2013-02-26 00:31:00,36.0,13.0,-100.00,SSE,166,1.0,2.0,39,-99.99,,,-99.99,,2013-02-26 08:31:00,
2013-02-26 00:41:00,36.0,13.0,-100.00,SSE,166,1.0,2.0,39,-99.99,,,-99.99,,2013-02-26 08:41:00,
2013-02-26 00:52:00,36.0,13.0,-100.00,ESE,122,3.0,4.0,39,-99.99,,,-99.99,,2013-02-26 08:52:00,
2013-02-26 01:01:00,35.0,14.0,-100.00,SSW,204,1.0,3.0,41,-99.99,,,-99.99,,2013-02-26 09:01:00,
2013-02-26 01:11:00,35.0,14.0,-100.00,South,189,2.0,4.0,41,-99.99,,,-99.99,,2013-02-26 09:11:00,
2013-02-26 01:21:00,37.0,13.0,-100.00,SE,135,3.0,4.0,36,-99.99,,,-99.99,,2013-02-26 09:21:00,
2013-02-26 01:31:00,39.0,10.0,-100.00,WSW,250,1.0,4.0,30,-99.99,,,-99.99,,2013-02-26 09:31:00,
2013-02-26 01:43:00,38.0,11.0,-100.00,ENE,75,3.0,5.0,32,-99.99,,,-99.99,,2013-02-26 09:43:00,
2013-02-26 01:51:00,39.0,10.0,-100.00,SSE,147,1.0,3.0,30,-99.99,,,-99.99,,2013-02-26 09:51:00,
2013-02-26 02:01:00,39.0,10.0,-100.00,SSE,155,1.0,3.0,30,-99.99,,,-99.99,,2013-02-26 10:01:00,
2013-02-26 02:11:00,40.0,10.0,-100.00,ESE,119,4.0,5.0,28,-99.99,,,-99.99,,2013-02-26 10:11:00,
2013-02-26 02:21:00,41.0,10.0,-100.00,SE,129,3.0,4.0,27,-99.99,,,-99.99,,2013-02-26 10:21:00,
2013-02-26 02:31:00,41.0,8.0,-100.00,SE,144,4.0,4.0,25,-99.99,,,-99.99,,2013-02-26 10:31:00,
2013-02-26 02:41:00,43.0,7.0,-100.00,South,173,4.0,5.0,22,-99.99,,,-99.99,,2013-02-26 10:41:00,
2013-02-26 02:51:00,42.0,8.0,-100.00,SSW,194,2.0,5.0,24,-99.99,,,-99.99,,2013-02-26 10:51:00,
2013-02-26 03:01:00,35.0,9.0,-100.00,WNW,286,1.0,2.0,33,-99.99,,,-99.99,,2013-02-26 11:01:00,
2013-02-26 03:11:00,34.0,9.0,-100.00,SE,139,2.0,6.0,34,-99.99,,,-99.99,,2013-02-26 11:11:00,
2013-02-26 03:21:00,35.0,10.0,-100.00,SSE,153,3.0,6.0,35,-99.99,,,-99.99,,2013-02-26 11:21:00,
2013-02-26 03:31:00,34.0,10.0,-100.00,ENE,70,3.0,4.0,36,-99.99,,,-99.99,,2013-02-26 11:31:00,
2013-02-26 03:41:00,34.0,9.0,-100.00,ESE,102,0.0,1.0,34,-99.99,,,-99.99,,2013-02-26 11:41:00,
2013-02-26 03:52:00,36.0,7.0,-100.00,SE,128,3.0,5.0,29,-99.99,,,-99.99,,2013-02-26 11:52:00,
2013-02-26 04:01:00,36.0,7.0,-100.00,SE,128,3.0,5.0,29,-99.99,,,-99.99,,2013-02-26 12:01:00,
2013-02-26 04:11:00,38.0,7.0,-100.00,SSW,208,1.0,4.0,27,-99.99,,,-99.99,,2013-02-26 12:11:00,
2013-02-26 04:22:00,34.0,7.0,-100.00,ESE,109,2.0,4.0,32,-99.99,,,-99.99,,2013-02-26 12:22:00,
2013-02-26 04:32:00,36.0,5.0,-100.00,ESE,122,2.0,4.0,27,-99.99,,,-99.99,,2013-02-26 12:32:00,
2013-02-26 04:42:00,32.0,7.0,-100.00,ESE,110,3.0,6.0,34,-99.99,,,-99.99,,2013-02-26 12:42:00,
2013-02-26 04:52:00,32.0,6.0,-100.00,SE,132,1.0,4.0,33,-99.99,,,-99.99,,2013-02-26 12:52:00,
2013-02-26 05:01:00,32.0,6.0,-100.00,SE,134,0.0,1.0,33,-99.99,,,-99.99,,2013-02-26 13:01:00,
2013-02-26 05:11:00,32.0,7.0,-100.00,SE,134,1.0,4.0,34,-99.99,,,-99.99,,2013-02-26 13:11:00,
2013-02-26 05:21:00,30.0,7.0,-100.00,SSE,149,1.0,4.0,37,-99.99,,,-99.99,,2013-02-26 13:21:00,
2013-02-26 05:31:00,29.0,8.0,-100.00,ESE,113,1.0,2.0,40,-99.99,,,-99.99,,2013-02-26 13:31:00,
2013-02-26 05:42:00,29.0,8.0,-100.00,East,96,3.0,8.0,41,-99.99,,,-99.99,,2013-02-26 13:42:00,
2013-02-26 05:51:00,39.0,7.0,-100.00,East,86,5.0,7.0,26,-99.99,,,-99.99,,2013-02-26 13:51:00,
2013-02-26 06:01:00,39.0,7.0,-100.00,East,86,5.0,7.0,26,-99.99,,,-99.99,,2013-02-26 14:01:00,
2013-02-26 06:11:00,38.0,8.0,-100.00,East,94,4.0,7.0,28,-99.99,,,-99.99,,2013-02-26 14:11:00,
2013-02-26 06:21:00,37.0,8.0,-100.00,East,97,5.0,9.0,30,-99.99,,,-99.99,,2013-02-26 14:21:00,
2013-02-26 06:31:00,38.0,9.0,-100.00,East,91,4.0,8.0,30,-99.99,,,-99.99,,2013-02-26 14:31:00,
2013-02-26 06:41:00,39.0,9.0,-100.00,East,88,5.0,9.0,28,-99.99,,,-99.99,,2013-02-26 14:41:00,
2013-02-26 06:52:00,39.0,7.0,-100.00,ENE,73,8.0,13.0,26,-99.99,,,-99.99,,2013-02-26 14:52:00,
2013-02-26 07:01:00,38.0,6.0,-100.00,ENE,77,8.0,11.0,26,-99.99,,,-99.99,,2013-02-26 15:01:00,
2013-02-26 07:11:00,37.0,6.0,-100.00,East,85,7.0,10.0,27,-99.99,,,-99.99,,2013-02-26 15:11:00,
2013-02-26 07:21:00,39.0,7.0,-100.00,East,98,7.0,9.0,26,-99.99,,,-99.99,,2013-02-26 15:21:00,
2013-02-26 07:32:00,40.0,10.0,-100.00,East,98,6.0,9.0,28,-99.99,,,-99.99,,2013-02-26 15:32:00,
2013-02-26 07:41:00,40.0,10.0,-100.00,East,92,5.0,8.0,29,-99.99,,,-99.99,,2013-02-26 15:41:00,
2013-02-26 07:51:00,42.0,12.0,-100.00,East,87,6.0,9.0,29,-99.99,,,-99.99,,2013-02-26 15:51:00,
2013-02-26 08:01:00,44.0,13.0,-100.00,ENE,72,8.0,13.0,28,-99.99,,,-99.99,,2013-02-26 16:01:00,
2013-02-26 08:11:00,46.0,13.0,-100.00,ENE,74,8.0,14.0,26,-99.99,,,-99.99,,2013-02-26 16:11:00,
2013-02-26 08:22:00,47.0,13.0,-100.00,ENE,59,9.0,14.0,25,-99.99,,,-99.99,,2013-02-26 16:22:00,
2013-02-26 08:31:00,48.0,14.0,-100.00,NE,48,9.0,15.0,25,-99.99,,,-99.99,,2013-02-26 16:31:00,
2013-02-26 08:41:00,49.0,15.0,-100.00,NE,51,9.0,20.0,25,-99.99,,,-99.99,,2013-02-26 16:41:00,
2013-02-26 08:51:00,49.0,14.0,-100.00,NE,43,11.0,18.0,24,-99.99,,,-99.99,,2013-02-26 16:51:00,
2013-02-26 09:01:00,50.0,14.0,-100.00,NE,40,11.0,20.0,23,-99.99,,,-99.99,,2013-02-26 17:01:00,
2013-02-26 09:11:00,51.0,14.0,-100.00,NE,50,11.0,23.0,22,-99.99,,,-99.99,,2013-02-26 17:11:00,
2013-02-26 09:21:00,52.0,13.0,-100.00,ENE,63,11.0,22.0,21,-99.99,,,-99.99,,2013-02-26 17:21:00,
2013-02-26 09:32:00,52.0,12.0,-100.00,ENE,62,13.0,20.0,20,-99.99,,,-99.99,,2013-02-26 17:32:00,
2013-02-26 09:41:00,52.0,11.0,-100.00,NE,56,14.0,24.0,19,-99.99,,,-99.99,,2013-02-26 17:41:00,
2013-02-26 09:52:00,52.0,12.0,-100.00,ENE,58,14.0,24.0,20,-99.99,,,-99.99,,2013-02-26 17:52:00,
2013-02-26 10:01:00,53.0,12.0,-100.00,ENE,60,13.0,23.0,19,-99.99,,,-99.99,,2013-02-26 18:01:00,
2013-02-26 10:12:00,53.0,12.0,-100.00,NE,47,15.0,23.0,19,-99.99,,,-99.99,,2013-02-26 18:12:00,
2013-02-26 10:21:00,53.0,12.0,-100.00,NE,47,15.0,23.0,19,-99.99,,,-99.99,,2013-02-26 18:21:00,
2013-02-26 10:32:00,53.0,12.0,-100.00,NE,48,15.0,26.0,19,-99.99,,,-99.99,,2013-02-26 18:32:00,
2013-02-26 10:42:00,54.0,13.0,-100.00,NE,55,14.0,22.0,19,-99.99,,,-99.99,,2013-02-26 18:42:00,
2013-02-26 10:52:00,55.0,14.0,-100.00,NE,45,13.0,25.0,19,-99.99,,,-99.99,,2013-02-26 18:52:00,
2013-02-26 11:01:00,55.0,14.0,-100.00,NE,45,13.0,25.0,19,-99.99,,,-99.99,,2013-02-26 19:01:00,
2013-02-26 11:11:00,53.0,12.0,-100.00,NE,45,17.0,28.0,19,-99.99,,,-99.99,,2013-02-26 19:11:00,
2013-02-26 11:22:00,54.0,11.0,-100.00,NE,53,17.0,28.0,18,-99.99,,,-99.99,,2013-02-26 19:22:00,
2013-02-26 11:31:00,53.0,11.0,-100.00,NE,51,18.0,27.0,18,-99.99,,,-99.99,,2013-02-26 19:31:00,
2013-02-26 11:41:00,54.0,10.0,-100.00,NE,51,18.0,29.0,17,-99.99,,,-99.99,,2013-02-26 19:41:00,
2013-02-26 11:50:00,54.0,10.0,-100.00,NE,54,19.0,30.0,17,-99.99,,,-99.99,,2013-02-26 19:50:00,
2013-02-26 11:51:00,54.0,10.0,-100.00,ENE,57,17.0,29.0,17,-99.99,,,-99.99,,2013-02-26 19:51:00,
2013-02-26 12:01:00,54.0,10.0,-100.00,ENE,58,17.0,29.0,17,-99.99,,,-99.99,,2013-02-26 20:01:00,
2013-02-26 12:11:00,54.0,10.0,-100.00,ENE,60,18.0,29.0,17,-99.99,,,-99.99,,2013-02-26 20:11:00,
2013-02-26 12:21:00,54.0,10.0,-100.00,NE,54,19.0,30.0,17,-99.99,,,-99.99,,2013-02-26 20:21:00,
2013-02-26 12:31:00,54.0,10.0,-100.00,NE,54,19.0,30.0,17,-99.99,,,-99.99,,2013-02-26 20:31:00,
2013-02-26 12:41:00,54.0,10.0,-100.00,NE,54,19.0,30.0,17,-99.99,,,-99.99,,2013-02-26 20:41:00,
2013-02-26 14:01:00,55.0,8.0,-100.00,ENE,60,15.0,24.0,15,-99.99,,,-99.99,,2013-02-26 22:01:00,
2013-02-26 14:11:00,55.0,8.0,-100.00,NE,52,16.0,25.0,15,-99.99,,,-99.99,,2013-02-26 22:11:00,
2013-02-26 14:21:00,54.0,9.0,-100.00,NE,53,17.0,29.0,16,-99.99,,,-99.99,,2013-02-26 22:21:00,
2013-02-26 14:31:00,55.0,10.0,-100.00,NE,52,15.0,26.0,16,-99.99,,,-99.99,,2013-02-26 22:31:00,
2013-02-26 14:41:00,55.0,8.0,-100.00,ENE,59,15.0,24.0,15,-99.99,,,-99.99,,2013-02-26 22:41:00,
2013-02-26 14:51:00,55.0,10.0,-100.00,ENE,60,13.0,22.0,16,-99.99,,,-99.99,,2013-02-26 22:51:00,
2013-02-26 15:01:00,55.0,11.0,-100.00,ENE,70,14.0,26.0,17,-99.99,,,-99.99,,2013-02-26 23:01:00,
2013-02-26 15:11:00,55.0,11.0,-100.00,NE,56,15.0,24.0,17,-99.99,,,-99.99,,2013-02-26 23:11:00,
2013-02-26 15:21:00,55.0,11.0,-100.00,ENE,63,15.0,24.0,17,-99.99,,,-99.99,,2013-02-26 23:21:00,
2013-02-26 15:31:00,55.0,11.0,-100.00,ENE,63,15.0,24.0,17,-99.99,,,-99.99,,2013-02-26 23:31:00,
2013-02-26 15:41:00,55.0,10.0,-100.00,NE,55,15.0,25.0,16,-99.99,,,-99.99,,2013-02-26 23:41:00,
2013-02-26 15:52:00,54.0,9.0,-100.00,ENE,61,15.0,26.0,16,-99.99,,,-99.99,,2013-02-26 23:52:00,
2013-02-26 16:01:00,54.0,9.0,-100.00,ENE,61,15.0,26.0,16,-99.99,,,-99.99,,2013-02-27 00:01:00,
2013-02-26 16:11:00,54.0,9.0,-100.00,ENE,59,15.0,25.0,16,-99.99,,,-99.99,,2013-02-27 00:11:00,
2013-02-26 16:21:00,54.0,9.0,-100.00,NE,56,14.0,25.0,16,-99.99,,,-99.99,,2013-02-27 00:21:00,
2013-02-26 16:31:00,54.0,9.0,-100.00,NE,51,16.0,26.0,16,-99.99,,,-99.99,,2013-02-27 00:31:00,
2013-02-26 16:41:00,54.0,10.0,-100.00,ENE,59,14.0,25.0,17,-99.99,,,-99.99,,2013-02-27 00:41:00,
2013-02-26 16:51:00,54.0,10.0,-100.00,ENE,67,12.0,22.0,17,-99.99,,,-99.99,,2013-02-27 00:51:00,
2013-02-26 17:01:00,54.0,10.0,-100.00,NE,51,15.0,21.0,17,-99.99,,,-99.99,,2013-02-27 01:01:00,
2013-02-26 17:11:00,53.0,9.0,-100.00,NE,51,14.0,22.0,17,-99.99,,,-99.99,,2013-02-27 01:11:00,
2013-02-26 17:21:00,53.0,9.0,-100.00,ENE,61,13.0,22.0,17,-99.99,,,-99.99,,2013-02-27 01:21:00,
2013-02-26 17:31:00,52.0,10.0,-100.00,ENE,59,14.0,22.0,18,-99.99,,,-99.99,,2013-02-27 01:31:00,
2013-02-26 17:41:00,52.0,11.0,-100.00,ENE,61,12.0,20.0,19,-99.99,,,-99.99,,2013-02-27 01:41:00,
2013-02-26 17:51:00,51.0,10.0,-100.00,ENE,60,12.0,19.0,19,-99.99,,,-99.99,,2013-02-27 01:51:00,
2013-02-26 18:01:00,51.0,11.0,-100.00,ENE,67,9.0,16.0,20,-99.99,,,-99.99,,2013-02-27 02:01:00,
2013-02-26 18:13:00,50.0,12.0,-100.00,ENE,70,9.0,17.0,21,-99.99,,,-99.99,,2013-02-27 02:13:00,
2013-02-26 18:22:00,49.0,12.0,-100.00,ENE,69,9.0,14.0,22,-99.99,,,-99.99,,2013-02-27 02:22:00,
2013-02-26 18:31:00,48.0,12.0,-100.00,ENE,72,9.0,13.0,23,-99.99,,,-99.99,,2013-02-27 02:31:00,
2013-02-26 18:41:00,47.0,12.0,-100.00,ENE,78,8.0,12.0,24,-99.99,,,-99.99,,2013-02-27 02:41:00,
2013-02-26 18:52:00,46.0,12.0,-100.00,East,82,7.0,10.0,25,-99.99,,,-99.99,,2013-02-27 02:52:00,
2013-02-26 19:01:00,46.0,13.0,-100.00,East,89,6.0,9.0,26,-99.99,,,-99.99,,2013-02-27 03:01:00,
2013-02-26 19:11:00,45.0,13.0,-100.00,East,95,5.0,8.0,27,-99.99,,,-99.99,,2013-02-27 03:11:00,
2013-02-26 19:21:00,45.0,13.0,-100.00,ESE,102,5.0,8.0,27,-99.99,,,-99.99,,2013-02-27 03:21:00,
2013-02-26 19:31:00,45.0,14.0,-100.00,ESE,106,5.0,8.0,28,-99.99,,,-99.99,,2013-02-27 03:31:00,
2013-02-26 19:41:00,45.0,14.0,-100.00,ESE,103,5.0,8.0,28,-99.99,,,-99.99,,2013-02-27 03:41:00,
2013-02-26 19:51:00,44.0,13.0,-100.00,ESE,102,6.0,8.0,28,-99.99,,,-99.99,,2013-02-27 03:51:00,
2013-02-26 20:01:00,44.0,14.0,-100.00,ESE,108,6.0,7.0,29,-99.99,,,-99.99,,2013-02-27 04:01:00,
2013-02-26 20:11:00,43.0,13.0,-100.00,ESE,106,4.0,6.0,29,-99.99,,,-99.99,,2013-02-27 04:11:00,
2013-02-26 20:21:00,44.0,12.0,-100.00,East,88,4.0,7.0,27,-99.99,,,-99.99,,2013-02-27 04:21:00,
2013-02-26 20:31:00,44.0,12.0,-100.00,East,88,4.0,7.0,27,-99.99,,,-99.99,,2013-02-27 04:31:00,
2013-02-26 20:41:00,44.0,13.0,-100.00,East,88,4.0,6.0,28,-99.99,,,-99.99,,2013-02-27 04:41:00,
2013-02-26 20:51:00,43.0,13.0,-100.00,East,89,5.0,7.0,29,-99.99,,,-99.99,,2013-02-27 04:51:00,
2013-02-26 21:01:00,43.0,13.0,-100.00,East,92,6.0,7.0,29,-99.99,,,-99.99,,2013-02-27 05:01:00,
2013-02-26 21:11:00,43.0,14.0,-100.00,East,92,6.0,8.0,30,-99.99,,,-99.99,,2013-02-27 05:11:00,
2013-02-26 21:22:00,42.0,14.0,-100.00,East,94,6.0,8.0,31,-99.99,,,-99.99,,2013-02-27 05:22:00,
2013-02-26 21:32:00,42.0,14.0,-100.00,East,94,7.0,9.0,31,-99.99,,,-99.99,,2013-02-27 05:32:00,
2013-02-26 21:41:00,42.0,14.0,-100.00,East,84,6.0,9.0,32,-99.99,,,-99.99,,2013-02-27 05:41:00,
2013-02-26 21:52:00,42.0,14.0,-100.00,ENE,73,6.0,10.0,32,-99.99,,,-99.99,,2013-02-27 05:52:00,
2013-02-26 22:02:00,42.0,14.0,-100.00,ENE,73,6.0,10.0,32,-99.99,,,-99.99,,2013-02-27 06:02:00,
2013-02-26 22:11:00,42.0,14.0,-100.00,ENE,73,6.0,10.0,32,-99.99,,,-99.99,,2013-02-27 06:11:00,
2013-02-26 22:21:00,44.0,15.0,-100.00,ENE,67,8.0,14.0,30,-99.99,,,-99.99,,2013-02-27 06:21:00,
2013-02-26 22:32:00,44.0,15.0,-100.00,ENE,68,8.0,15.0,30,-99.99,,,-99.99,,2013-02-27 06:32:00,
2013-02-26 22:41:00,44.0,13.0,-100.00,ENE,70,8.0,15.0,28,-99.99,,,-99.99,,2013-02-27 06:41:00,
2013-02-26 22:51:00,44.0,12.0,-100.00,ENE,66,8.0,13.0,27,-99.99,,,-99.99,,2013-02-27 06:51:00,
2013-02-26 23:01:00,44.0,12.0,-100.00,ENE,67,8.0,13.0,27,-99.99,,,-99.99,,2013-02-27 07:01:00,
2013-02-26 23:12:00,44.0,12.0,-100.00,ENE,60,8.0,13.0,27,-99.99,,,-99.99,,2013-02-27 07:12:00,
2013-02-26 23:21:00,43.0,11.0,-100.00,ENE,63,7.0,14.0,27,-99.99,,,-99.99,,2013-02-27 07:21:00,
2013-02-26 23:31:00,43.0,11.0,-100.00,ENE,64,8.0,13.0,27,-99.99,,,-99.99,,2013-02-27 07:31:00,
2013-02-26 23:41:00,43.0,12.0,-100.00,ENE,68,8.0,12.0,28,-99.99,,,-99.99,,2013-02-27 07:41:00,
2013-02-26 23:51:00,42.0,11.0,-100.00,ENE,63,8.0,15.0,28,-99.99,,,-99.99,,2013-02-27 07:51:00,